Location: Lango�lan
(48.1202°N, 3.2340°W)
Time: 07:45:03
(UTC+00:00)

Cosmos 1758 Rocket - Pass Details

Date: 23 October 2019
Orbit: 603 x 635 km, 82.5° (Epoch: 11 November)

Event Time Altitude Azimuth Distance (km) Brightness Sun altitude
Rises 06:08:47 0° 185° (S) 2,850 7.0 -6.5°
Reaches altitude 10° 06:10:59 10° 184° (S) 1,955 6.2 -6.2°
Maximum altitude 06:15:18 80° 98° (E) 628 3.7 -5.4°
Drops below altitude 10° 06:19:42 10° 12° (NNE) 1,989 6.2 -4.7°
Sets 06:21:57 0° 11° (N) 2,904 7.0 -4.4°
